Location: Unspecified
(0.0000°N, 0.0000°E)
Time: 05:58:31
(UTC+00:00)

USA 144 - Visible Passes

Search period start: 24 April 2019 00:00
Search period end: 04 May 2019 00:00
Orbit: 2685 x 3135 km, 63.4° (Epoch: 30 November)

Date Brightness Start Highest point End Pass type
(mag) Time Alt. Az. Time Alt. Az. Time Alt. Az.
24 Apr 6.1 21:32:43 10° NNE 21:37:37 17° NNE 21:37:37 17° NNE visible
25 Apr 6.2 00:03:06 10° NNW 00:06:08 18° NNW 00:06:08 18° NNW visible
25 Apr 5.9 22:16:27 10° N 22:22:54 26° NNE 22:22:54 26° NNE visible
26 Apr 5.9 23:02:21 10° NNW 23:08:14 28° NNW 23:08:14 28° NNW visible
27 Apr 5.9 21:18:09 10° NNE 21:25:02 22° NE 21:25:02 22° NE visible
27 Apr 6.1 23:49:48 10° NNW 23:53:35 20° NW 23:53:35 20° NW visible
28 Apr 5.7 22:02:31 10° N 22:10:25 32° NNE 22:10:25 32° NNE visible
29 Apr 6.1 20:22:53 10° NE 20:27:16 13° NE 20:27:16 13° NE visible
29 Apr 5.7 22:48:46 10° NNW 22:55:49 33° NNW 22:55:49 33° NNW visible
30 Apr 5.7 21:03:46 10° N 21:12:43 27° NE 21:12:43 27° NE visible
30 Apr 6.0 23:36:36 10° NW 23:41:15 23° NW 23:41:15 23° NW visible
01 May 5.4 21:48:40 10° N 21:58:10 39° N 21:58:10 39° N visible
02 May 6.5 00:26:37 10° WNW 00:26:43 10° WNW 00:26:43 10° WNW visible
02 May 5.9 20:07:09 10° NNE 20:15:07 17° NE 20:15:07 17° NE visible
02 May 5.5 22:35:16 10° NNW 22:43:40 38° NNW 22:43:40 38° NNW visible
03 May 5.5 20:49:34 10° N 21:00:38 34° NE 21:00:38 34° NE visible
03 May 6.0 23:23:29 10° NW 23:29:12 25° NW 23:29:12 25° NW visible
